Regional Weather Roundup
Issued by NWS

Home | Current Version | Previous Version | Text Only | Print | Product List | Glossary Off
Versions: 1 2 3 4 5 6 7 8 9 10 11 12 13 14 15 16 17 18 19 20 21 22 23 24 25 26 27 28 29 30 31 32 33 34 35 36 37 38 39 40 41 42 43 44 45 46 47 48 49 50

000
ASUS43 KMKX 250159
RWRWI

WISCONSIN REGIONAL WEATHER ROUNDUP
NATIONAL WEATHER SERVICE MILWAUKEE/SULLIVAN WI
900 PM CDT WED MAY 24 2017

NOTE: "FAIR" INDICATES FEW OR NO CLOUDS BELOW 12,000 FEET WITH NO
SIGNIFICANT WEATHER AND/OR OBSTRUCTIONS TO VISIBILITY.

WIZ001-002-006>008-014>016-023>028-250300-
NORTHWEST WISCONSIN

CITY           SKY/WX    TMP DP  RH WIND       PRES   REMARKS
SUPERIOR ARPT  NOT AVBL
ASHLAND        PTCLDY    44  40  85 NE5       29.76S
HAYWARD        CLOUDY    54  44  69 NE8       29.73S
SIREN          CLOUDY    58  44  61 CALM      29.72S
CUMBERLAND     CLOUDY    54  45  71 NE5       29.71S
RICE LAKE      CLOUDY    57  46  68 E5        29.73R
CHETEK         CLOUDY    56  48  75 E5        29.72R
LADYSMITH      CLOUDY    55  47  74 E6        29.73F
EAU CLAIRE     NOT AVBL
MENOMONIE      CLOUDY    58  48  71 E7        29.71R
NEW RICHMOND   PTCLDY    55  45  69 CALM      29.71S
OSCEOLA        CLOUDY    57  47  67 N3        29.74R
$$

WIZ003>005-009-010-017-018-250300-
NORTH CENTRAL WISCONSIN

CITY           SKY/WX    TMP DP  RH WIND       PRES   REMARKS
MANITOWISH WTR CLOUDY    52  48  86 NE5       29.74R
ARBOR VITAE    CLOUDY    55  48  78 CALM      29.73S
WOODRUFF       CLOUDY    55  48  78 CALM      29.73S
RHINELANDER    CLOUDY    54  48  80 NE5       29.74S
EAGLE RIVER    CLOUDY    52  46  79 E3        29.73S
LAND O LAKES   CLOUDY    53  47  78 CALM      29.76S
PHILLIPS       CLOUDY    52  47  84 CALM      29.73S
TOMAHAWK       CLOUDY    52  47  82 CALM      29.73S
MEDFORD        CLOUDY    52  48  84 N6        29.71S
MERRILL        CLOUDY    54  49  82 E5        29.72S
$$

WIZ029-030-035-036-043>047-250300-
CENTRAL WISCONSIN

CITY           SKY/WX    TMP DP  RH WIND       PRES   REMARKS
WAUSAU         CLOUDY    54  49  83 CALM      29.70S
MOSINEE        CLOUDY    52  50  93 NE3       29.72S
MARSHFIELD     CLOUDY    53  49  86 E5        29.70S
STEVENS POINT  CLOUDY    51  49  92 NE5       29.71S
WAUPACA        CLOUDY    55  51  85 N6        29.70S
WAUTOMA        CLOUDY    53  50  89 N7        29.70S
WISC RAPIDS    CLOUDY    54  49  83 NE5       29.71S
CAMP DOUGLAS   NOT AVBL
$$

WIZ011>013-019>022-031-037>040-048>050-250300-
NORTHEAST WISCONSIN

CITY           SKY/WX    TMP DP  RH WIND       PRES   REMARKS
ANTIGO         CLOUDY    52  49  90 NE6       29.72S
SHAWANO        CLOUDY    55  51  86 NE7       29.69F
OCONTO         CLOUDY    52  49  87 NE8       29.69F
STURGEON BAY   CLOUDY    52  49  89 N9        29.69S
GREEN BAY      CLOUDY    53  52  96 N15       29.68S
MANITOWOC      CLOUDY    52  48  87 N10G18    29.66S
APPLETON       CLOUDY    54  50  87 NE14      29.67
CLINTONVILLE   CLEAR     52  48  87 N5        29.69S
OSHKOSH        CLOUDY    54  50  86 N12       29.67R
$$

WIZ032>034-041-042-053>061-250300-
SOUTHWEST WISCONSIN

CITY           SKY/WX    TMP DP  RH WIND       PRES   REMARKS
LA CROSSE      CLOUDY    58  50  75 CALM      29.69S
SPARTA         CLOUDY    55  51  87 NE3       29.70S
VIROQUA        CLOUDY    53  51  91 MISG      29.69S
BOSCOBEL       MOCLDY    55  50  83 CALM      29.68R
PRAIRIE DU CHI CLOUDY    57  49  75 N3        29.68R
PLATTEVILLE    CLOUDY    56  53  91 N10       29.66S
$$

WIZ056-057-062-063-064-067-068-250300-
SOUTH CENTRAL WISCONSIN

CITY           SKY/WX    TMP DP  RH WIND       PRES   REMARKS
REEDSBURG      CLOUDY    54  52  95 N7        29.68S
BARABOO/DELLS  CLOUDY    53  49  83 NE5       29.68S
LONE ROCK      NOT AVBL
MINERAL POINT  PTCLDY    54  52  94 N9        29.66S
MADISON        CLOUDY    54  50  86 N10       29.65S
MIDDLETON      CLOUDY    55  52  89 N9        29.66S
WATERTOWN      CLOUDY    53  52  96 N8        29.63F
MONROE         MOCLDY    54  50  87 N12       29.63S
JANESVILLE     MOCLDY    57  54  88 N8        29.62S
$$

WIZ051-052-058>065-066-070>072-250300-
SOUTHEAST WISCONSIN

CITY           SKY/WX    TMP DP  RH WIND       PRES   REMARKS
MILWAUKEE      MOCLDY    55  50  83 N21G28    29.60F
WAUKESHA       CLOUDY    55  48  76 N8        29.62F
MILWAUKEE/TIMM PTCLDY    55  48  76 N12       29.61S
RACINE         CLOUDY    51  47  86 N20G26    29.62R
KENOSHA        CLOUDY    54  48  80 N15       29.59R
FOND DU LAC    CLOUDY    54  49  83 N13       29.66S
SHEBOYGAN      CLOUDY    54  52  93 N9        29.63F
WEST BEND      CLOUDY    54  52  94 N7        29.63S
JUNEAU         CLOUDY    52  50  92 N12       29.66S
$$

LSZ147-162-250300-
LAKE SUPERIOR

STATION/POSITION TIME  TEMP    WIND        PRES    WAVE
                       AIR SEA DIR/SP/G            HT/PER
                 (UTC) (F)     (DEG/KT/KT) (MB)    (FT/S)
$$

LMZ867-665-643>646-250300-
LAKE MICHIGAN

STATION/POSITION TIME  TEMP    WIND        PRES    WAVE
                       AIR SEA DIR/SP/G            HT/PER
                 (UTC) (F)     (DEG/KT/KT) (MB)    (FT/S)
$$

TC  - TEMPERATURE IN CELSIUS
VSB - VISIBILITY IN STATUTE MILES
WCI - WIND CHILL INDEX
HX  - HEAT INDEX





USA.gov is the U.S. government's official web portal to all federal, state and local government web resources and services.